Location: Dessau
(51.7984°N, 12.2168°E)
Time: 08:50:21
(UTC+02:00)

ISS - Visible Passes

Search period start: 28 May 2017 00:00
Search period end: 07 June 2017 00:00
Orbit: 402 x 408 km, 51.6° (Epoch: 28 May)

Date Brightness Start Highest point End Pass type
(mag) Time Alt. Az. Time Alt. Az. Time Alt. Az.
28 May -3.9 00:06:46 10° W 00:10:04 89° WSW 00:13:23 10° E visible
28 May -3.7 01:43:16 10° W 01:46:30 51° SSW 01:47:25 37° SSE visible
28 May -3.9 23:14:42 10° W 23:18:01 87° S 23:21:19 10° E visible
29 May -3.9 00:51:13 10° W 00:54:30 68° SSW 00:56:01 29° ESE visible
29 May -1.6 02:28:01 10° W 02:28:37 13° W 02:28:37 13° W visible
29 May -3.9 22:22:40 10° WSW 22:25:58 78° S 22:29:16 10° E visible
29 May -3.9 23:59:09 10° W 00:02:28 81° S 00:05:08 15° ESE visible
30 May -2.5 01:35:45 10° W 01:37:45 26° WSW 01:37:45 26° WSW visible
30 May -3.9 23:07:05 10° W 23:10:24 89° S 23:13:42 10° E visible
31 May -3.6 00:43:37 10° W 00:46:48 45° SSW 00:47:05 44° S visible
31 May -3.8 22:15:00 10° W 22:18:19 89° S 22:21:38 10° E visible
31 May -3.8 23:51:30 10° W 23:54:47 62° SSW 23:56:30 25° ESE visible
01 Jun -1.5 01:28:26 10° W 01:29:07 13° WSW 01:29:07 13° WSW visible
01 Jun -3.9 22:59:25 10° W 23:02:43 77° S 23:05:58 10° ESE visible
02 Jun -2.7 00:36:03 10° W 00:38:36 27° SW 00:38:36 27° SW visible
02 Jun -3.8 22:07:18 10° W 22:10:37 87° S 22:13:55 10° E visible
02 Jun -3.3 23:43:51 10° W 23:46:58 40° SSW 23:48:06 29° SSE visible
03 Jun -3.6 22:51:41 10° W 22:54:56 55° SSW 22:57:39 14° ESE visible
04 Jun -1.8 00:28:47 10° WSW 00:30:17 15° SW 00:30:17 15° SW visible
04 Jun -2.5 23:36:17 10° W 23:39:01 24° SSW 23:39:51 22° S visible
05 Jun -3.0 22:43:58 10° W 22:47:02 35° SSW 22:49:26 14° SE visible
06 Jun -1.7 23:29:07 10° WSW 23:30:54 14° SW 23:31:42 13° SSW visible
